Simultaneous Nadir Overpasses (SNOs) Predictions

Prediction of SNOs between GOES-16 and NOAA-20 Satellite Orbit:

Table of predicted SNOs for the next 14.0 days since TLE Epoch: 11/28/2020
Index Date Time (GOES-16) GOES-16 Lat,Lon NOAA-20 Lat,Lon Distance(km) Time Diff (sec)
1 11/30/2020 18:26:25 0.00, -75.21 -0.15, -75.77 64.13 80
2 12/01/2020 18:10:22 -0.00, -75.22 0.91, -71.25 453.41 80
3 12/03/2020 06:32:10 0.01, -75.23 0.27, -76.52 146.40 80
4 12/04/2020 06:10:46 0.01, -75.24 -0.73, -71.99 371.05 80
5 12/05/2020 18:32:42 -0.02, -75.26 -0.48, -77.28 230.72 80
6 12/06/2020 18:16:37 -0.02, -75.28 0.52, -72.75 287.22 80
7 12/08/2020 06:38:26 0.02, -75.30 0.66, -78.02 311.32 80
8 12/09/2020 06:17:02 0.02, -75.31 -0.41, -73.50 206.72 80
9 12/10/2020 18:38:58 -0.03, -75.34 -0.80, -78.80 394.46 80
10 12/11/2020 18:22:54 -0.03, -75.36 0.21, -74.27 124.09 80
